Time,TemperatureF,DewpointF,PressureIn,WindDirection,WindDirectionDegrees,WindSpeedMPH,WindSpeedGustMPH,Humidity,HourlyPrecipIn,Conditions,Clouds,dailyrainin,SoftwareType,DateUTC
2013-04-26 00:02:00,42.0,31.0,30.35,SW,224,3.0,6.0,65,0.00,,,0.06,,2013-04-26 05:02:00,
2013-04-26 00:12:00,42.0,31.0,30.35,SW,224,3.0,6.0,65,0.00,,,0.06,,2013-04-26 05:12:00,
2013-04-26 00:22:00,42.0,31.0,30.35,SSW,212,3.0,7.0,65,0.00,,,0.06,,2013-04-26 05:22:00,
2013-04-26 00:32:00,42.0,31.0,30.35,SW,224,3.0,6.0,65,0.00,,,0.06,,2013-04-26 05:32:00,
2013-04-26 00:42:00,42.0,31.0,30.35,SW,224,3.0,6.0,65,0.00,,,0.06,,2013-04-26 05:42:00,
2013-04-26 00:52:00,41.0,31.0,30.35,SW,221,3.0,6.0,66,0.00,,,0.06,,2013-04-26 05:52:00,
2013-04-26 01:02:00,41.0,31.0,30.35,SSW,207,3.0,8.0,66,0.00,,,0.06,,2013-04-26 06:02:00,
2013-04-26 01:11:00,41.0,31.0,30.35,SSW,207,3.0,8.0,66,0.00,,,0.06,,2013-04-26 06:11:00,
2013-04-26 01:21:00,41.0,31.0,30.35,South,190,4.0,6.0,66,0.00,,,0.06,,2013-04-26 06:21:00,
2013-04-26 01:32:00,41.0,31.0,30.35,SSW,211,3.0,7.0,67,0.00,,,0.06,,2013-04-26 06:32:00,
2013-04-26 01:42:00,41.0,31.0,30.35,SSW,211,3.0,7.0,67,0.00,,,0.06,,2013-04-26 06:42:00,
2013-04-26 01:52:00,41.0,31.0,30.34,SSW,205,4.0,9.0,66,0.00,,,0.06,,2013-04-26 06:52:00,
2013-04-26 02:01:00,41.0,30.0,30.34,SW,214,4.0,7.0,64,0.00,,,0.06,,2013-04-26 07:01:00,
2013-04-26 02:11:00,41.0,30.0,30.34,SW,214,4.0,7.0,64,0.00,,,0.06,,2013-04-26 07:11:00,
2013-04-26 02:22:00,41.0,29.0,30.33,South,186,5.0,10.0,62,0.00,,,0.06,,2013-04-26 07:22:00,
2013-04-26 02:31:00,40.0,28.0,30.33,South,182,4.0,11.0,61,0.00,,,0.06,,2013-04-26 07:31:00,
2013-04-26 02:42:00,40.0,28.0,30.33,South,182,4.0,11.0,61,0.00,,,0.06,,2013-04-26 07:42:00,
2013-04-26 02:52:00,41.0,29.0,30.33,SSW,192,5.0,10.0,62,0.00,,,0.06,,2013-04-26 07:52:00,
2013-04-26 03:02:00,41.0,29.0,30.33,SW,218,4.0,11.0,62,0.00,,,0.06,,2013-04-26 08:02:00,
2013-04-26 03:11:00,41.0,29.0,30.33,SW,218,4.0,11.0,62,0.00,,,0.06,,2013-04-26 08:11:00,
2013-04-26 03:21:00,40.0,28.0,30.34,SSW,206,3.0,9.0,62,0.00,,,0.06,,2013-04-26 08:21:00,
2013-04-26 03:32:00,40.0,28.0,30.34,SSW,201,4.0,9.0,63,0.00,,,0.06,,2013-04-26 08:32:00,
2013-04-26 03:42:00,40.0,28.0,30.34,SSW,201,4.0,9.0,63,0.00,,,0.06,,2013-04-26 08:42:00,
2013-04-26 03:52:00,40.0,29.0,30.34,SSW,208,4.0,10.0,64,0.00,,,0.06,,2013-04-26 08:52:00,
2013-04-26 04:01:00,40.0,29.0,30.33,SSW,203,4.0,8.0,64,0.00,,,0.06,,2013-04-26 09:01:00,
2013-04-26 04:11:00,40.0,29.0,30.33,SSW,203,4.0,8.0,64,0.00,,,0.06,,2013-04-26 09:11:00,
2013-04-26 04:21:00,40.0,28.0,30.34,SW,217,5.0,11.0,63,0.00,,,0.06,,2013-04-26 09:21:00,
2013-04-26 04:33:00,40.0,28.0,30.35,SSW,207,5.0,11.0,61,0.00,,,0.06,,2013-04-26 09:33:00,
2013-04-26 04:42:00,40.0,28.0,30.35,SSW,207,5.0,11.0,61,0.00,,,0.06,,2013-04-26 09:42:00,
2013-04-26 04:53:00,40.0,28.0,30.34,SW,225,4.0,10.0,62,0.00,,,0.06,,2013-04-26 09:53:00,
2013-04-26 05:03:00,40.0,28.0,30.34,South,177,5.0,12.0,62,0.00,,,0.06,,2013-04-26 10:03:00,
2013-04-26 05:12:00,40.0,28.0,30.34,South,177,5.0,12.0,62,0.00,,,0.06,,2013-04-26 10:12:00,
2013-04-26 05:23:00,40.0,28.0,30.34,SSW,213,4.0,10.0,62,0.00,,,0.06,,2013-04-26 10:23:00,
2013-04-26 05:33:00,40.0,28.0,30.33,South,188,4.0,14.0,61,0.00,,,0.06,,2013-04-26 10:33:00,
2013-04-26 05:42:00,40.0,28.0,30.33,South,188,4.0,14.0,61,0.00,,,0.06,,2013-04-26 10:42:00,
2013-04-26 05:52:00,40.0,28.0,30.33,SSE,162,4.0,13.0,61,0.00,,,0.06,,2013-04-26 10:52:00,
2013-04-26 06:02:00,40.0,28.0,30.34,SW,217,4.0,17.0,61,0.00,,,0.06,,2013-04-26 11:02:00,
2013-04-26 06:11:00,40.0,28.0,30.34,SW,217,4.0,17.0,61,0.00,,,0.06,,2013-04-26 11:11:00,
2013-04-26 06:22:00,40.0,28.0,30.34,SSW,207,5.0,14.0,61,0.00,,,0.03,,2013-04-26 11:22:00,
2013-04-26 06:32:00,41.0,28.0,30.33,SSW,194,8.0,17.0,60,0.00,,,0.03,,2013-04-26 11:32:00,
2013-04-26 06:41:00,41.0,28.0,30.33,SSW,194,8.0,17.0,60,0.00,,,0.03,,2013-04-26 11:41:00,
2013-04-26 06:52:00,41.0,28.0,30.33,SSW,197,4.0,15.0,60,0.00,,,0.03,,2013-04-26 11:52:00,
2013-04-26 07:01:00,42.0,29.0,30.35,SSW,209,6.0,14.0,59,0.00,,,0.03,,2013-04-26 12:01:00,
2013-04-26 07:11:00,42.0,29.0,30.35,SSW,209,6.0,14.0,59,0.00,,,0.03,,2013-04-26 12:11:00,
2013-04-26 07:21:00,42.0,29.0,30.35,WSW,246,5.0,14.0,59,0.00,,,0.03,,2013-04-26 12:21:00,
2013-04-26 07:32:00,43.0,30.0,30.35,SSW,209,4.0,12.0,59,0.00,,,0.03,,2013-04-26 12:32:00,
2013-04-26 07:42:00,43.0,30.0,30.35,SSW,209,4.0,12.0,59,0.00,,,0.03,,2013-04-26 12:42:00,
2013-04-26 07:52:00,43.0,30.0,30.35,SW,236,5.0,18.0,59,0.00,,,0.03,,2013-04-26 12:52:00,
2013-04-26 08:01:00,44.0,30.0,30.35,South,178,5.0,13.0,58,0.00,,,0.03,,2013-04-26 13:01:00,
2013-04-26 08:11:00,44.0,30.0,30.35,South,178,5.0,13.0,58,0.00,,,0.03,,2013-04-26 13:11:00,
2013-04-26 08:21:00,45.0,32.0,30.35,SSE,160,4.0,10.0,59,0.00,,,0.01,,2013-04-26 13:21:00,
2013-04-26 08:31:00,46.0,31.0,30.33,SSW,202,6.0,18.0,56,0.00,,,0.01,,2013-04-26 13:31:00,
2013-04-26 08:42:00,46.0,31.0,30.33,SSW,202,6.0,18.0,56,0.00,,,0.01,,2013-04-26 13:42:00,
2013-04-26 08:52:00,47.0,32.0,30.32,SW,236,7.0,20.0,55,0.00,,,0.01,,2013-04-26 13:52:00,
2013-04-26 09:01:00,49.0,33.0,30.32,SSW,194,5.0,24.0,54,0.00,,,0.01,,2013-04-26 14:01:00,
2013-04-26 09:11:00,49.0,33.0,30.32,SSW,194,5.0,24.0,54,0.00,,,0.01,,2013-04-26 14:11:00,
2013-04-26 09:21:00,50.0,33.0,30.32,SSW,197,5.0,19.0,52,0.00,,,0.00,,2013-04-26 14:21:00,
2013-04-26 09:32:00,51.0,34.0,30.33,SW,229,5.0,18.0,52,0.00,,,0.00,,2013-04-26 14:32:00,
2013-04-26 09:41:00,51.0,34.0,30.33,SW,229,5.0,18.0,52,0.00,,,0.00,,2013-04-26 14:41:00,
2013-04-26 09:52:00,52.0,34.0,30.32,SW,220,7.0,18.0,50,0.00,,,0.00,,2013-04-26 14:52:00,
2013-04-26 10:01:00,53.0,34.0,30.32,SW,222,6.0,20.0,49,0.00,,,0.00,,2013-04-26 15:01:00,
2013-04-26 10:12:00,53.0,34.0,30.32,SW,222,6.0,20.0,49,0.00,,,0.00,,2013-04-26 15:12:00,
2013-04-26 10:21:00,54.0,35.0,30.32,SSW,208,6.0,14.0,48,0.00,,,0.00,,2013-04-26 15:21:00,
2013-04-26 10:33:00,56.0,37.0,30.32,SSW,196,4.0,18.0,48,0.00,,,0.00,,2013-04-26 15:33:00,
2013-04-26 10:43:00,56.0,37.0,30.32,SSW,196,4.0,18.0,48,0.00,,,0.00,,2013-04-26 15:43:00,
2013-04-26 10:53:00,57.0,36.0,30.32,South,191,9.0,25.0,46,0.00,,,0.00,,2013-04-26 15:53:00,
2013-04-26 11:03:00,58.0,37.0,30.31,SW,216,9.0,21.0,45,0.00,,,0.00,,2013-04-26 16:03:00,
2013-04-26 11:12:00,58.0,37.0,30.31,SW,216,9.0,21.0,45,0.00,,,0.00,,2013-04-26 16:12:00,
2013-04-26 11:23:00,59.0,38.0,30.30,WSW,237,7.0,22.0,45,0.00,,,0.00,,2013-04-26 16:23:00,
2013-04-26 11:33:00,60.0,38.0,30.30,SSW,205,8.0,18.0,44,0.00,,,0.00,,2013-04-26 16:33:00,
2013-04-26 11:42:00,60.0,38.0,30.30,SSW,205,8.0,18.0,44,0.00,,,0.00,,2013-04-26 16:42:00,
2013-04-26 11:52:00,62.0,39.0,30.29,SW,214,8.0,22.0,43,0.00,,,0.00,,2013-04-26 16:52:00,
2013-04-26 12:02:00,63.0,38.0,30.29,SSW,213,12.0,21.0,40,0.00,,,0.00,,2013-04-26 17:02:00,
2013-04-26 12:12:00,63.0,38.0,30.29,SSW,213,12.0,21.0,40,0.00,,,0.00,,2013-04-26 17:12:00,
2013-04-26 12:21:00,63.0,39.0,30.28,WNW,286,6.0,23.0,41,0.00,,,0.00,,2013-04-26 17:21:00,
2013-04-26 12:31:00,64.0,40.0,30.28,SSW,204,7.0,20.0,41,0.00,,,0.00,,2013-04-26 17:31:00,
2013-04-26 12:41:00,64.0,40.0,30.28,SSW,204,7.0,20.0,41,0.00,,,0.00,,2013-04-26 17:41:00,
2013-04-26 12:52:00,62.0,39.0,30.28,WSW,245,11.0,25.0,42,0.00,,,0.00,,2013-04-26 17:52:00,
2013-04-26 13:02:00,62.0,40.0,30.28,SSW,213,11.0,27.0,45,0.00,,,0.00,,2013-04-26 18:02:00,
2013-04-26 13:12:00,63.0,41.0,30.27,SW,227,9.0,23.0,45,0.00,,,0.00,,2013-04-26 18:12:00,
2013-04-26 13:22:00,63.0,41.0,30.27,SW,227,9.0,23.0,45,0.00,,,0.00,,2013-04-26 18:22:00,
2013-04-26 13:33:00,63.0,41.0,30.27,South,186,10.0,27.0,45,0.00,,,0.00,,2013-04-26 18:33:00,
2013-04-26 13:42:00,63.0,41.0,30.27,South,186,10.0,27.0,45,0.00,,,0.00,,2013-04-26 18:42:00,
2013-04-26 13:52:00,64.0,42.0,30.27,SW,216,12.0,21.0,45,0.00,,,0.00,,2013-04-26 18:52:00,
2013-04-26 14:01:00,64.0,43.0,30.26,SW,223,8.0,29.0,46,0.00,,,0.00,,2013-04-26 19:01:00,
2013-04-26 14:11:00,64.0,43.0,30.26,SW,223,8.0,29.0,46,0.00,,,0.00,,2013-04-26 19:11:00,
2013-04-26 14:22:00,64.0,43.0,30.26,WSW,257,11.0,23.0,46,0.00,,,0.00,,2013-04-26 19:22:00,
2013-04-26 14:31:00,64.0,43.0,30.25,SW,227,10.0,22.0,46,0.00,,,0.00,,2013-04-26 19:31:00,
2013-04-26 14:41:00,64.0,43.0,30.25,SW,227,10.0,22.0,46,0.00,,,0.00,,2013-04-26 19:41:00,
2013-04-26 14:52:00,65.0,44.0,30.24,SW,233,11.0,29.0,46,0.00,,,0.00,,2013-04-26 19:52:00,
2013-04-26 15:02:00,65.0,44.0,30.24,SSW,193,12.0,27.0,46,0.00,,,0.00,,2013-04-26 20:02:00,
2013-04-26 15:11:00,65.0,44.0,30.24,SW,227,10.0,22.0,46,0.00,,,0.00,,2013-04-26 20:11:00,
2013-04-26 15:21:00,65.0,44.0,30.24,SW,227,10.0,22.0,46,0.00,,,0.00,,2013-04-26 20:21:00,
2013-04-26 15:32:00,65.0,44.0,30.23,SW,223,10.0,23.0,46,0.00,,,0.00,,2013-04-26 20:32:00,
2013-04-26 15:42:00,65.0,44.0,30.23,SW,223,10.0,23.0,46,0.00,,,0.00,,2013-04-26 20:42:00,
2013-04-26 15:52:00,66.0,45.0,30.23,SW,215,9.0,21.0,47,0.00,,,0.00,,2013-04-26 20:52:00,
2013-04-26 16:01:00,66.0,45.0,30.23,SSW,194,12.0,22.0,46,0.00,,,0.00,,2013-04-26 21:01:00,
2013-04-26 16:11:00,66.0,45.0,30.23,SSW,194,12.0,22.0,46,0.00,,,0.00,,2013-04-26 21:11:00,
2013-04-26 16:21:00,66.0,44.0,30.23,WSW,239,13.0,24.0,45,0.00,,,0.00,,2013-04-26 21:21:00,
2013-04-26 16:33:00,65.0,44.0,30.23,SW,236,8.0,23.0,47,0.00,,,0.00,,2013-04-26 21:33:00,
2013-04-26 16:42:00,65.0,44.0,30.23,SW,236,8.0,23.0,47,0.00,,,0.00,,2013-04-26 21:42:00,
2013-04-26 16:53:00,65.0,44.0,30.22,SSW,213,12.0,22.0,47,0.00,,,0.00,,2013-04-26 21:53:00,
2013-04-26 17:02:00,66.0,46.0,30.22,SW,221,9.0,18.0,49,0.00,,,0.00,,2013-04-26 22:02:00,
2013-04-26 17:12:00,66.0,46.0,30.22,SW,221,9.0,18.0,49,0.00,,,0.00,,2013-04-26 22:12:00,
2013-04-26 17:23:00,66.0,46.0,30.23,SW,229,11.0,22.0,48,0.00,,,0.00,,2013-04-26 22:23:00,
2013-04-26 17:33:00,66.0,45.0,30.23,SW,232,13.0,23.0,47,0.00,,,0.00,,2013-04-26 22:33:00,
2013-04-26 17:42:00,66.0,45.0,30.23,SW,232,13.0,23.0,47,0.00,,,0.00,,2013-04-26 22:42:00,
2013-04-26 17:52:00,66.0,46.0,30.24,SW,236,11.0,20.0,48,0.00,,,0.00,,2013-04-26 22:52:00,
2013-04-26 18:02:00,65.0,45.0,30.24,WSW,242,10.0,21.0,49,0.00,,,0.00,,2013-04-26 23:02:00,
2013-04-26 18:11:00,65.0,45.0,30.24,WSW,242,10.0,21.0,49,0.00,,,0.00,,2013-04-26 23:11:00,
2013-04-26 18:21:00,65.0,45.0,30.24,SSW,205,9.0,22.0,49,0.00,,,0.00,,2013-04-26 23:21:00,
2013-04-26 18:32:00,65.0,45.0,30.23,SSE,165,8.0,22.0,49,0.00,,,0.00,,2013-04-26 23:32:00,
2013-04-26 18:42:00,65.0,45.0,30.23,SSE,165,8.0,22.0,49,0.00,,,0.00,,2013-04-26 23:42:00,
2013-04-26 18:52:00,65.0,46.0,30.23,SW,227,10.0,20.0,50,0.00,,,0.00,,2013-04-26 23:52:00,
2013-04-26 19:01:00,65.0,46.0,30.24,SW,236,9.0,19.0,50,0.00,,,0.00,,2013-04-27 00:01:00,
2013-04-26 19:11:00,65.0,46.0,30.24,SW,236,9.0,19.0,50,0.00,,,0.00,,2013-04-27 00:11:00,
2013-04-26 19:21:00,64.0,46.0,30.24,SSE,155,7.0,22.0,52,0.00,,,0.00,,2013-04-27 00:21:00,
2013-04-26 19:32:00,63.0,46.0,30.25,SW,217,7.0,22.0,53,0.00,,,0.00,,2013-04-27 00:32:00,
2013-04-26 19:42:00,63.0,46.0,30.25,SW,217,7.0,22.0,53,0.00,,,0.00,,2013-04-27 00:42:00,
2013-04-26 19:52:00,62.0,45.0,30.25,SW,229,9.0,21.0,53,0.00,,,0.00,,2013-04-27 00:52:00,
2013-04-26 20:01:00,62.0,44.0,30.26,WSW,240,8.0,15.0,52,0.00,,,0.00,,2013-04-27 01:01:00,
2013-04-26 20:12:00,62.0,44.0,30.26,WSW,240,8.0,15.0,52,0.00,,,0.00,,2013-04-27 01:12:00,
2013-04-26 20:21:00,61.0,44.0,30.27,WSW,244,9.0,18.0,53,0.00,,,0.00,,2013-04-27 01:21:00,
2013-04-26 20:32:00,61.0,44.0,30.27,WSW,238,7.0,16.0,54,0.00,,,0.00,,2013-04-27 01:32:00,
2013-04-26 20:42:00,61.0,44.0,30.27,WSW,238,7.0,16.0,54,0.00,,,0.00,,2013-04-27 01:42:00,
2013-04-26 20:52:00,60.0,44.0,30.28,WSW,242,7.0,12.0,55,0.00,,,0.00,,2013-04-27 01:52:00,
2013-04-26 21:01:00,60.0,44.0,30.29,SW,229,5.0,12.0,56,0.00,,,0.00,,2013-04-27 02:01:00,
2013-04-26 21:11:00,60.0,44.0,30.29,SW,229,5.0,12.0,56,0.00,,,0.00,,2013-04-27 02:11:00,
2013-04-26 21:22:00,59.0,44.0,30.29,WSW,238,5.0,15.0,57,0.00,,,0.00,,2013-04-27 02:22:00,
2013-04-26 21:32:00,59.0,44.0,30.29,SW,217,6.0,15.0,57,0.00,,,0.00,,2013-04-27 02:32:00,
2013-04-26 21:42:00,59.0,44.0,30.29,SW,217,6.0,15.0,57,0.00,,,0.00,,2013-04-27 02:42:00,
2013-04-26 21:52:00,59.0,44.0,30.30,SW,232,7.0,14.0,57,0.00,,,0.00,,2013-04-27 02:52:00,
2013-04-26 22:02:00,58.0,43.0,30.30,WSW,242,5.0,16.0,58,0.00,,,0.00,,2013-04-27 03:02:00,
2013-04-26 22:11:00,58.0,43.0,30.30,WSW,242,5.0,16.0,58,0.00,,,0.00,,2013-04-27 03:11:00,
2013-04-26 22:22:00,58.0,44.0,30.30,SW,229,5.0,15.0,59,0.00,,,0.00,,2013-04-27 03:22:00,
2013-04-26 22:32:00,58.0,44.0,30.30,WSW,238,6.0,15.0,60,0.00,,,0.00,,2013-04-27 03:32:00,
2013-04-26 22:42:00,58.0,44.0,30.30,WSW,238,6.0,15.0,60,0.00,,,0.00,,2013-04-27 03:42:00,
2013-04-26 22:53:00,57.0,44.0,30.30,SW,236,6.0,13.0,62,0.00,,,0.00,,2013-04-27 03:53:00,
2013-04-26 23:02:00,56.0,44.0,30.30,SW,225,6.0,11.0,64,0.00,,,0.00,,2013-04-27 04:02:00,
2013-04-26 23:12:00,56.0,44.0,30.30,SW,225,6.0,11.0,64,0.00,,,0.00,,2013-04-27 04:12:00,
2013-04-26 23:22:00,56.0,45.0,30.30,WSW,238,6.0,12.0,66,0.00,,,0.00,,2013-04-27 04:22:00,
2013-04-26 23:33:00,55.0,45.0,30.29,SW,217,6.0,12.0,68,0.00,,,0.00,,2013-04-27 04:33:00,
2013-04-26 23:43:00,55.0,45.0,30.29,SW,217,6.0,12.0,68,0.00,,,0.00,,2013-04-27 04:43:00,
2013-04-26 23:53:00,55.0,45.0,30.29,SW,223,6.0,12.0,69,0.00,,,0.00,,2013-04-27 04:53:00,